SCP
0 0 0 0 0 0 0 0 0 0 0 0 0 0 0 0 0 0 -0 -0 0 0 0 0 0 0 0 0 0 0 0 0 0 0 0 0 0 0
0 0 0 0 0 0 0 0 0 0 0 0 0 0 0 0 0 0 0 0 0 0 0 0 0 0 0 0 0 0 0 0 0 0 0 0 0 0
0 0 0 0 0 0 0 0 0 0 0 0 0 0 0 0 0 0 0 0 0 0 0 0 0 0 0 0 0 0 0 0 0 0 0 0 0 0
0 0 0 0 0 0 0 0 0 0 0 0 0 0 0 0 0 0 0 0 0 0 0 0 0 0 0 0 0 0 0 0 0 0 0 0 0 0
0 0 0 0 0 0 0 0 0 0 0 0 0 0 0 0 0 0 0 0 0 0 -0 0 0 0 0 0 0 0 0 0 0 0 0 0 0 0
0 0 0 0 0 0 0 0 0 0 0 0 0 0 0 0 0 0 0 0 0 0 0 0 0 0 0 0 0 0 0 0 0 0 0 0 0 0
0 0 0 0 0 0 0 0 0 0 0 0 0 0 0 0 0 0 0 0 0 0 0 0 0 0 0 0 0 0 0 0 0 0 0 0 0 0
0 0 0 0 0 0 0 0 0 0 0 0 0 0 0 0 0 0 0 0 0 0 0 0 0 0 0 0 0 0 0 0 0 0 0 0 0 0
0 0 0 0 0 0 0 0 0 0 0 0 0 0 0 0 0 0 0 0 0 0 0 0 0 0 0 0 0 0 0 0 0 0 0 0 0 0
0 0 0 0 0 0 0 0 0 0 0 0 0 0 0 0 0 0 0 0 0 0 0 0 0 0 0 0 0 0 0 0 0 0 0 0 0 0
0 0 0 0 0 0 0 0 0 0 0 0 0 0 0 0 0 0 0 0 0 0 0 0 0 0 0 0 0 0 0 0 0 0 0 0 0 0
0 0 0 0 0 0 0 0 0 0 0 0 0 0 0 0 0 0 0 0 0 0 0 0 0 0 0 0 0 0 0 0 0 0 0 0 0 0
0 0 0 0 0 0 0 0 0 0 0 0 0 0 0 0 0 0 0 0 0 0 0 0 0 0 0 0 0 0 0 0 0 0 0 0 0 0
0 0 0 0 0 0 0 0 0 0 0 0 0 0 0 0 0 0 0 0 0 0 0 0 0 0 0 0 0 0 0 0 0 0 0 0 0 0
0 0 0 0 0 0 0 0 0 0 0 0 0 0 0 0 0 0 0 0 0 0 0 0 0 0 0 0 0 0 0 0 0 0 0 0 0 0
0 0 0 0 0 0 0 0 0 0 0 0 0 0 0 0 0 0 0 0 0 0 0 0 0 0 0 0 0 0 0 0 0 0 0 0 0 0
0 0 0 0 0 0 0 0 0 0 0 0 0 0 0 0 0 0 0 0 0 0 0 0 0 0 0 0 0 0 0 0 0 0 0 0 0 0
0 0 0 0 0 0 0 0 0 0 0 0 0 0 0 0 0 0 0 0 0 0 0 0 0 0 0 0 0 0 0 0 0 0 0 0 0 0
0 0 0 0 0 0 0 0 0 0 0 0 0 0 0 0 0 0 0 0 0 0 0 0 0 0 0 0 0 0 0 0 0 0 0 0 0 0
0 0 0 0 0 0 0 0 0 0 0 0 0 0 0 0 0 0 0 0 0 0 0 0 0 0 0 0 0 0 0 0 0 0 0 0 0 0
0 0 0 0 0 0 0 0 0 0 0 0 0 0 0 0 0 0 0 0 0 0 0 0 0 0 0 0 0 0 0 0 0 0 0 0 0 0
0 0 0 0 0 0 0 0 0 0 0 0 0 0 0 0 0 0 0 0 0 0 0 0 0 0 0 0 0 0 0 0 0 0 0 0 0 0
0 0 0 0 0 0 0 0 0 0 0 0 0 0 0 0 0 0 0 0 0 0 0 0 0 0 0 0 0 0 0 0 0 0 0 0 0 0
Wind_Speed
6 6 5 4 3 2 2 2 2 2 2 2 1 2 4 4 8 8 8 12 13 14 16 17 17 18 19 20 21 22 23 24 24 25 26 27 28 29
6 7 6 5 4 3 3 2 1 2 2 1 0 2 4 4 6 7 7 11 9 12 15 16 16 18 19 20 20 21 22 23 24 25 26 27 28 29
7 8 7 7 5 4 3 3 2 1 2 1 1 2 4 5 6 6 7 7 7 11 14 15 16 17 18 19 19 20 21 23 24 25 26 27 28 29
9 9 9 6 7 5 4 4 3 2 2 2 1 2 4 5 6 7 6 6 7 10 13 14 15 16 17 18 18 19 21 22 23 24 25 26 27 28
10 10 9 9 8 5 5 4 3 2 1 2 2 2 3 4 6 6 7 6 7 8 10 12 14 16 16 16 17 18 20 21 22 23 24 25 26 27
8 9 9 8 8 8 5 5 4 3 2 2 2 3 3 4 4 5 6 6 7 7 7 11 13 13 13 14 16 17 19 20 21 22 23 24 25 26
9 8 7 7 7 6 5 5 5 3 3 2 2 2 3 3 4 5 7 8 8 4 7 8 8 7 8 10 13 16 18 19 20 22 23 24 25 25
10 9 8 7 8 8 6 6 5 4 3 2 2 3 4 4 4 5 7 7 6 5 8 9 7 7 7 7 13 17 18 19 21 22 23 24 24 25
10 9 7 6 7 6 7 7 5 4 4 3 4 4 4 4 5 6 6 7 7 8 8 7 6 7 7 7 13 15 17 19 20 21 22 23 24 24
9 9 9 9 8 7 6 5 4 4 4 3 3 4 4 4 4 5 6 7 8 6 4 6 6 7 8 7 9 13 16 18 20 21 22 23 24 24
8 8 8 8 11 11 7 6 5 4 3 3 4 4 4 4 4 3 4 5 6 4 2 5 6 8 7 5 6 11 14 16 19 20 21 22 23 22
7 7 7 9 11 11 7 6 6 4 3 2 3 3 3 2 2 2 3 4 4 4 1 4 5 6 7 4 5 6 8 12 16 18 20 21 23 14
7 7 7 12 12 11 8 5 5 4 3 3 3 3 2 2 2 2 2 4 5 5 3 4 5 5 5 7 7 5 6 8 9 11 14 19 20 16
7 6 7 12 11 11 7 6 6 4 3 3 3 3 3 3 2 3 3 5 6 7 6 5 5 5 6 7 7 6 6 6 7 8 9 14 14 17
5 8 9 11 10 7 8 8 5 4 3 4 4 3 3 2 2 3 4 4 6 6 4 4 5 6 6 7 7 7 7 6 6 8 9 9 9 9
6 7 10 10 7 5 5 5 4 3 4 4 3 3 2 2 3 2 3 3 4 4 3 4 5 6 7 8 8 8 7 6 7 8 9 8 7 7
7 5 5 5 5 5 4 4 4 4 4 4 3 3 3 3 3 2 2 3 3 4 4 3 4 6 8 7 6 6 6 6 7 8 8 8 7 7
8 6 7 7 7 7 6 6 5 5 5 4 4 4 4 4 3 3 3 4 4 4 4 3 4 4 4 5 7 6 5 6 6 7 7 7 7 6
8 7 8 8 7 7 7 6 6 5 5 5 5 4 4 4 4 4 4 4 4 4 4 3 3 3 4 4 2 3 5 6 6 6 6 6 7 7
8 8 8 8 7 7 7 6 6 5 5 5 5 5 4 4 4 4 4 4 4 4 4 3 3 3 4 4 4 4 6 6 6 7 7 7 7 8
9 8 7 7 7 7 6 6 6 6 6 5 5 5 5 5 5 4 4 4 5 4 4 4 1 2 4 3 5 5 4 5 7 6 7 7 7 5
9 8 8 7 7 7 6 6 6 6 6 6 6 5 5 5 6 6 5 5 4 4 5 3 2 3 3 4 6 6 6 5 7 10 9 8 5 5
8 7 7 7 7 6 6 7 8 7 7 6 6 6 6 5 5 5 5 5 4 4 4 3 3 3 4 4 6 6 7 7 6 5 5 6 9 12
Wind_Direction
148 142 134 127 125 136 153 193 218 225 219 167 174 68 4 351 348 338 337 344 339 343 344 343 344 345 344 343 342 341 340 341 340 339 337 335 334 332
144 142 135 130 126 132 142 158 217 241 233 183 260 359 346 335 338 331 330 326 328 339 338 339 342 344 343 342 342 342 342 342 340 339 337 336 336 335
144 142 138 138 140 141 141 149 157 204 233 222 268 320 322 328 330 330 326 327 330 335 335 336 340 341 341 341 341 341 341 340 339 339 338 338 337 337
151 146 145 146 145 145 148 153 157 174 226 248 266 297 303 321 325 324 324 322 322 329 330 334 336 337 338 338 340 341 341 340 339 340 340 339 338 337
154 153 153 154 152 154 156 156 153 162 192 239 270 282 292 314 320 317 319 318 322 324 324 333 333 332 333 336 338 339 339 339 341 342 341 340 339 338
147 151 156 160 159 159 159 160 159 168 189 234 260 279 290 316 314 323 324 328 325 321 326 328 326 322 328 334 335 337 339 341 343 344 342 341 339 339
145 149 152 149 152 157 160 166 170 177 192 227 256 280 297 320 326 327 319 321 319 316 327 323 321 320 327 331 333 339 341 342 344 344 343 342 342 342
151 150 147 151 156 161 167 174 182 187 197 222 247 271 291 308 315 314 316 323 320 331 326 313 312 313 323 326 330 337 342 344 344 344 343 343 343 344
155 155 155 160 164 166 171 177 186 203 218 234 251 266 286 298 303 302 307 306 298 313 318 301 311 311 320 317 323 334 342 344 344 344 343 344 344 344
158 161 161 166 175 174 173 178 189 203 218 232 249 266 279 290 286 291 299 295 285 281 299 292 311 313 314 306 317 335 342 344 345 345 345 345 345 344
157 163 167 171 179 181 179 183 194 207 219 237 255 266 280 292 302 289 292 298 300 302 323 298 308 315 305 297 317 330 337 341 343 344 345 346 347 345
159 168 178 180 183 188 189 191 205 208 204 219 235 253 264 278 299 281 279 284 293 297 356 316 307 323 309 302 315 321 330 336 339 341 344 346 348 346
168 176 184 188 191 196 197 200 208 191 201 217 231 240 245 251 262 272 271 267 273 272 313 321 302 306 292 302 307 313 328 331 334 336 339 343 346 348
174 176 182 188 195 197 198 199 192 186 196 213 230 237 243 251 269 284 281 275 267 271 291 296 285 295 297 296 297 312 323 325 332 334 335 338 343 346
170 174 177 186 192 198 201 193 182 191 203 219 230 236 242 262 275 279 270 272 269 260 260 262 271 281 278 278 292 306 317 321 332 335 333 334 336 341
168 170 178 185 186 181 184 186 192 204 215 224 229 233 234 240 249 265 275 289 281 262 237 251 268 275 274 274 280 291 304 311 324 330 329 325 330 339
158 161 176 182 190 193 196 195 197 197 208 214 217 221 226 234 239 244 260 268 266 278 281 272 273 273 265 270 278 281 298 307 317 327 325 323 327 338
164 184 194 199 203 202 201 202 203 208 208 208 212 218 223 228 234 232 241 250 262 270 279 294 305 297 264 238 234 275 294 307 316 318 317 318 320 335
191 200 205 206 206 204 204 204 205 202 198 207 211 214 218 226 232 235 238 247 257 268 275 282 284 290 292 291 259 251 298 308 310 311 313 313 311 319
209 210 211 209 206 205 203 204 201 193 195 204 208 209 211 219 227 233 235 241 256 266 269 260 256 267 274 297 301 291 290 293 303 306 310 310 301 303
209 214 214 210 207 205 202 200 199 199 199 201 207 207 207 214 225 230 235 232 241 250 259 264 280 300 280 268 267 271 277 283 293 294 304 308 308 308
212 213 212 209 204 200 197 195 197 199 198 204 208 206 206 212 220 223 226 230 232 242 256 267 273 261 244 249 269 285 293 304 302 295 282 275 295 308
216 214 210 205 202 198 196 197 200 203 201 201 204 205 204 209 217 220 221 224 233 236 244 256 251 242 246 257 271 280 287 298 303 305 292 283 288 291